| time (UTC) | temp C | wind direction | speed KPH | gust KPH | rain 1hr cm | rain 24hr cm | rain mn cm | humidity % | barometer mb |
| 20260903103003 | 21 | 85 | 1.6 | 3.2 | 0.00 | 0.08 | 0.00 | 96 | 1016.3 |
| 20260903102003 | 21 | 92 | 3.2 | 3.2 | 0.00 | 0.15 | 0.00 | 96 | 1016.5 |
| 20260903101003 | 21 | 103 | 1.6 | 3.2 | 0.00 | 0.84 | 0.00 | 96 | 1016.5 |
| 20260903095003 | 21 | 98 | 0.0 | 3.2 | 0.00 | 0.97 | 0.00 | 95 | 1016.3 |
| 20260903094003 | 21 | 56 | 1.6 | 3.2 | 0.00 | 0.99 | 0.00 | 95 | 1016.2 |
| 20260903093003 | 21 | 17 | 1.6 | 8.0 | 0.00 | 1.17 | 0.00 | 95 | 1016.1 |
| 20260903092003 | 21 | 21 | 1.6 | 3.2 | 0.00 | 1.17 | 0.00 | 96 | 1016.1 |
| 20260903091003 | 21 | 259 | 0.0 | 3.2 | 0.00 | 1.17 | 0.00 | 96 | 1016.2 |
| 20260903090003 | 21 | 45 | 3.2 | 3.2 | 0.00 | 1.17 | 0.00 | 97 | 1016.1 |
| 20260903085003 | 20 | 81 | 0.0 | 1.6 | 0.00 | 1.17 | 0.00 | 97 | 1015.8 |
| 20260903084004 | 20 | 24 | 0.0 | 3.2 | 0.00 | 1.17 | 0.00 | 97 | 1015.8 |
| 20260903083003 | 20 | 60 | 1.6 | 1.6 | 0.00 | 1.17 | 0.00 | 98 | 1016.0 |
| 20260903082003 | 20 | 73 | 0.0 | 3.2 | 0.00 | 1.17 | 0.00 | 98 | 1016.2 |
| 20260903081003 | 20 | 141 | 1.6 | 3.2 | 0.00 | 1.17 | 0.00 | 99 | 1016.3 |
| 20260903080003 | 20 | 59 | 0.0 | 3.2 | 0.00 | 1.17 | 0.00 | 98 | 1016.3 |
| 20260903075003 | 20 | 76 | 0.0 | 1.6 | 0.00 | 1.17 | 0.00 | 98 | 1016.1 |
| 20260903074003 | 20 | 125 | 0.0 | 1.6 | 0.00 | 1.17 | 0.00 | 98 | 1016.2 |
| 20260903073003 | 20 | 91 | 1.6 | 3.2 | 0.00 | 1.17 | 0.00 | 98 | 1016.4 |
| 20260903072002 | 20 | 77 | 0.0 | 1.6 | 0.00 | 1.17 | 0.00 | 97 | 1016.3 |
| 20260903071003 | 20 | 102 | 1.6 | 1.6 | 0.00 | 1.17 | 0.00 | 97 | 1016.3 |
| 20260903070002 | 20 | 112 | 0.0 | 3.2 | 0.00 | 1.17 | 0.00 | 96 | 1016.4 |
| 20260903065003 | 21 | 65 | 1.6 | 3.2 | 0.00 | 1.17 | 0.00 | 96 | 1016.5 |
| 20260903064003 | 21 | 85 | 3.2 | 4.8 | 0.00 | 1.17 | 0.00 | 96 | 1016.7 |
| 20260903063002 | 20 | 114 | 3.2 | 3.2 | 0.00 | 1.17 | 0.00 | 97 | 1016.7 |
| 20260903062003 | 20 | 80 | 1.6 | 3.2 | 0.00 | 1.17 | 0.00 | 97 | 1016.8 |
| 20260903061002 | 20 | 152 | 1.6 | 3.2 | 0.00 | 1.17 | 0.00 | 97 | 1016.8 |
| 20260903060003 | 20 | 104 | 1.6 | 1.6 | 0.00 | 1.17 | 0.00 | 97 | 1016.6 |
| 20260903055003 | 20 | 116 | 0.0 | 1.6 | 0.00 | 1.17 | 0.00 | 97 | 1016.5 |
| 20260903053003 | 21 | 125 | 0.0 | 1.6 | 0.00 | 1.17 | 0.00 | 96 | 1016.6 |
| 20260903051004 | 21 | 85 | 1.6 | 3.2 | 0.00 | 1.17 | 0.00 | 95 | 1016.5 |
| 20260903050004 | 21 | 59 | 1.6 | 1.6 | 0.00 | 1.17 | 0.00 | 94 | 1016.6 |
| 20260903045003 | 21 | 68 | 1.6 | 1.6 | 0.00 | 1.17 | 1.17 | 94 | 1016.4 |
| 20260903044004 | 21 | 102 | 1.6 | 3.2 | 0.00 | 1.17 | 1.17 | 93 | 1016.4 |
| 20260903042003 | 21 | 105 | 1.6 | 4.8 | 0.00 | 1.17 | 1.17 | 93 | 1016.4 |
| 20260903041003 | 21 | 85 | 3.2 | 4.8 | 0.00 | 1.17 | 1.17 | 93 | 1016.3 |
| 20260903040002 | 22 | 93 | 1.6 | 4.8 | 0.00 | 1.17 | 1.17 | 92 | 1016.5 |
| 20260903035003 | 22 | 89 | 1.6 | 4.8 | 0.00 | 1.17 | 1.17 | 92 | 1016.6 |
| 20260903034003 | 22 | 85 | 1.6 | 3.2 | 0.00 | 1.17 | 1.17 | 93 | 1016.7 |
| 20260903033003 | 22 | 84 | 1.6 | 3.2 | 0.00 | 1.17 | 1.17 | 93 | 1016.7 |
| 20260903032003 | 22 | 88 | 3.2 | 3.2 | 0.00 | 1.17 | 1.17 | 92 | 1016.9 |
| 20260903031003 | 22 | 70 | 1.6 | 4.8 | 0.00 | 1.17 | 1.17 | 92 | 1016.8 |
| 20260903030003 | 22 | 127 | 1.6 | 3.2 | 0.00 | 1.17 | 1.17 | 92 | 1016.6 |
| 20260903025003 | 22 | 94 | 3.2 | 4.8 | 0.00 | 1.17 | 1.17 | 92 | 1016.6 |
| 20260903023004 | 23 | 84 | 3.2 | 3.2 | 0.00 | 1.17 | 1.17 | 91 | 1016.3 |
| 20260903022003 | 23 | 111 | 1.6 | 3.2 | 0.00 | 1.17 | 1.17 | 91 | 1016.6 |
| 20260903021003 | 23 | 101 | 3.2 | 8.0 | 0.00 | 1.17 | 1.17 | 90 | 1016.3 |
| 20260903020003 | 24 | 105 | 3.2 | 4.8 | 0.00 | 1.17 | 1.17 | 89 | 1016.3 |
| 20260903015003 | 24 | 111 | 3.2 | 3.2 | 0.00 | 1.17 | 1.17 | 88 | 1016.1 |
| 20260903014003 | 24 | 95 | 1.6 | 3.2 | 0.00 | 1.17 | 1.17 | 87 | 1016.1 |
| 20260903013003 | 25 | 91 | 1.6 | 3.2 | 0.00 | 1.17 | 1.17 | 86 | 1016.0 |
| 20260903012003 | 25 | 131 | 1.6 | 1.6 | 0.00 | 1.17 | 1.17 | 85 | 1015.9 |
| 20260903011003 | 25 | 137 | 1.6 | 3.2 | 0.00 | 1.17 | 1.17 | 84 | 1015.8 |
| 20260903010003 | 25 | 130 | 0.0 | 1.6 | 0.00 | 1.17 | 1.17 | 83 | 1015.7 |
| 20260903005003 | 26 | 3 | 0.0 | 1.6 | 0.00 | 1.17 | 1.17 | 81 | 1015.4 |
| 20260903004003 | 26 | 143 | 1.6 | 3.2 | 0.00 | 1.17 | 1.17 | 79 | 1015.2 |
| 20260903003003 | 26 | 127 | 1.6 | 1.6 | 0.00 | 1.17 | 1.17 | 79 | 1015.5 |
| 20260903002003 | 27 | 137 | 0.0 | 3.2 | 0.00 | 1.17 | 1.17 | 76 | 1015.5 |
| 20260903001003 | 27 | 118 | 1.6 | 4.8 | 0.00 | 1.17 | 1.17 | 75 | 1015.5 |
| 20260903000002 | 27 | 152 | 1.6 | 3.2 | 0.00 | 1.17 | 1.17 | 73 | 1015.6 |
| 20260902235002 | 28 | 149 | 1.6 | 3.2 | 0.00 | 1.17 | 1.17 | 70 | 1015.3 |
| 20260902234003 | 28 | 179 | 0.0 | 4.8 | 0.00 | 1.17 | 1.17 | 69 | 1015.5 |
| 20260902233003 | 28 | 293 | 1.6 | 9.7 | 0.00 | 1.17 | 1.17 | 68 | 1015.5 |
| 20260902232003 | 28 | 329 | 3.2 | 9.7 | 0.00 | 1.17 | 1.17 | 69 | 1015.4 |
| 20260902231003 | 28 | 295 | 4.8 | 8.0 | 0.00 | 1.17 | 1.17 | 69 | 1015.5 |
| 20260902223003 | 28 | 153 | 3.2 | 8.0 | 0.00 | 1.17 | 1.17 | 70 | 1015.4 |
| 20260902222003 | 28 | 244 | 3.2 | 8.0 | 0.00 | 1.17 | 1.17 | 69 | 1015.3 |
| 20260902221003 | 29 | 212 | 3.2 | 9.7 | 0.00 | 1.17 | 1.17 | 67 | 1015.6 |
| 20260902220003 | 28 | 235 | 4.8 | 8.0 | 0.00 | 1.17 | 1.17 | 67 | 1015.2 |
| 20260902215003 | 28 | 192 | 3.2 | 9.7 | 0.00 | 1.17 | 1.17 | 69 | 1015.2 |
| 20260902214004 | 28 | 219 | 3.2 | 9.7 | 0.00 | 1.17 | 1.17 | 69 | 1015.6 |
| 20260902213003 | 28 | 279 | 4.8 | 9.7 | 0.00 | 1.17 | 1.17 | 68 | 1015.5 |
| 20260902212003 | 28 | 281 | 3.2 | 8.0 | 0.00 | 1.17 | 1.17 | 67 | 1015.7 |
| 20260902211004 | 27 | 289 | 6.4 | 11.3 | 0.00 | 1.17 | 1.17 | 71 | 1015.7 |
| 20260902210003 | 27 | 359 | 4.8 | 9.7 | 0.00 | 1.17 | 1.17 | 72 | 1015.7 |
| 20260902205004 | 28 | 73 | 3.2 | 14.5 | 0.00 | 1.17 | 1.17 | 70 | 1016.1 |
| 20260902204003 | 28 | 21 | 1.6 | 12.9 | 0.00 | 1.17 | 1.17 | 69 | 1015.9 |
| 20260902203004 | 27 | 289 | 3.2 | 11.3 | 0.00 | 1.17 | 1.17 | 71 | 1016.1 |
| 20260902202003 | 28 | 323 | 4.8 | 9.7 | 0.00 | 1.17 | 1.17 | 69 | 1016.2 |
| 20260902201003 | 27 | 328 | 3.2 | 11.3 | 0.00 | 1.17 | 1.17 | 70 | 1016.3 |
| 20260902195003 | 27 | 282 | 4.8 | 9.7 | 0.00 | 1.17 | 1.17 | 70 | 1016.0 |
| 20260902194003 | 27 | 287 | 3.2 | 8.0 | 0.00 | 1.17 | 1.17 | 69 | 1015.9 |
| 20260902193003 | 27 | 322 | 3.2 | 8.0 | 0.00 | 1.17 | 1.17 | 68 | 1016.2 |
| 20260902192004 | 27 | 28 | 4.8 | 9.7 | 0.00 | 1.17 | 1.17 | 69 | 1016.2 |
| 20260902191003 | 26 | 291 | 3.2 | 9.7 | 0.00 | 1.17 | 1.17 | 71 | 1015.9 |
| 20260902190003 | 26 | 308 | 4.8 | 11.3 | 0.00 | 1.17 | 1.17 | 71 | 1016.0 |
| 20260902185003 | 27 | 339 | 4.8 | 9.7 | 0.00 | 1.17 | 1.17 | 71 | 1016.2 |
| 20260902183003 | 26 | 328 | 3.2 | 8.0 | 0.00 | 1.17 | 1.17 | 71 | 1016.5 |
| 20260902182004 | 25 | 316 | 3.2 | 14.5 | 0.00 | 1.17 | 1.17 | 76 | 1016.6 |
| 20260902181004 | 26 | 259 | 3.2 | 8.0 | 0.00 | 1.17 | 1.17 | 74 | 1016.8 |
| 20260902180006 | 25 | 335 | 3.2 | 9.7 | 0.00 | 1.17 | 1.17 | 76 | 1016.8 |
| 20260902174003 | 24 | 272 | 4.8 | 4.8 | 0.00 | 1.17 | 1.17 | 79 | 1016.8 |
| 20260902171004 | 23 | 77 | 1.6 | 9.7 | 0.00 | 1.17 | 1.17 | 82 | 1016.9 |
| 20260902170004 | 23 | 161 | 3.2 | 4.8 | 0.00 | 1.17 | 1.17 | 83 | 1016.8 |
| 20260902164003 | 22 | 179 | 3.2 | 4.8 | 0.00 | 1.17 | 1.17 | 85 | 1017.2 |
| 20260902162004 | 22 | 196 | 3.2 | 3.2 | 0.00 | 1.17 | 1.17 | 88 | 1017.3 |
| 20260902161004 | 21 | 233 | 1.6 | 3.2 | 0.00 | 1.17 | 1.17 | 90 | 1016.9 |
| 20260902160003 | 21 | 128 | 1.6 | 3.2 | 0.00 | 1.17 | 1.17 | 91 | 1017.1 |
| 20260902155003 | 21 | 49 | 1.6 | 3.2 | 0.00 | 1.17 | 1.17 | 92 | 1017.1 |
| 20260902153003 | 20 | 85 | 1.6 | 3.2 | 0.00 | 1.17 | 1.17 | 94 | 1017.1 |
| 20260902151003 | 20 | 82 | 0.0 | 4.8 | 0.00 | 1.17 | 1.17 | 97 | 1016.9 |
| 20260902150003 | 20 | 124 | 3.2 | 4.8 | 0.00 | 1.17 | 1.17 | 98 | 1016.8 |
| 20260902145003 | 19 | 44 | 4.8 | 8.0 | 0.00 | 1.17 | 1.17 | 98 | 1017.1 |
| 20260902144003 | 19 | 162 | 4.8 | 8.0 | 0.00 | 1.17 | 1.17 | 98 | 1016.6 |
| 20260902143003 | 19 | 33 | 3.2 | 4.8 | 0.00 | 1.17 | 1.17 | 99 | 1016.4 |
| 20260902142003 | 18 | 94 | 3.2 | 4.8 | 0.00 | 1.17 | 1.17 | 99 | 1017.1 |
| 20260902141003 | 18 | 159 | 1.6 | 9.7 | 0.03 | 1.17 | 1.17 | 99 | 1018.1 |
| 20260902140003 | 18 | 8 | 3.2 | 9.7 | 0.05 | 1.17 | 1.17 | 99 | 1018.3 |
| 20260902135004 | 18 | 305 | 3.2 | 8.0 | 0.05 | 1.17 | 1.17 | 99 | 1018.4 |
| 20260902134003 | 18 | 301 | 3.2 | 4.8 | 0.05 | 1.17 | 1.17 | 99 | 1018.3 |
| 20260902133003 | 18 | 146 | 3.2 | 4.8 | 0.05 | 1.17 | 1.17 | 99 | 1017.6 |
| 20260902132004 | 18 | 133 | 1.6 | 8.0 | 0.03 | 1.17 | 1.17 | 99 | 1017.8 |
| 20260902131003 | 18 | 150 | 1.6 | 4.8 | 0.03 | 1.17 | 1.17 | 99 | 1017.4 |
| 20260902130003 | 18 | 302 | 1.6 | 4.8 | 0.00 | 1.14 | 1.14 | 99 | 1018.0 |
| 20260902125003 | 18 | 294 | 3.2 | 4.8 | 0.00 | 1.14 | 1.14 | 99 | 1017.3 |
| 20260902124003 | 18 | 295 | 3.2 | 4.8 | 0.00 | 1.14 | 1.14 | 99 | 1016.7 |
| 20260902122002 | 18 | 113 | 3.2 | 4.8 | 0.00 | 1.14 | 1.14 | 99 | 1016.9 |
| 20260902121003 | 18 | 144 | 1.6 | 4.8 | 0.00 | 1.14 | 1.14 | 99 | 1017.1 |
| 20260902120003 | 18 | 181 | 1.6 | 4.8 | 0.00 | 1.14 | 1.14 | 99 | 1017.0 |
| 20260902115003 | 18 | 14 | 1.6 | 4.8 | 0.00 | 1.14 | 1.14 | 99 | 1017.2 |
| 20260902113004 | 18 | 107 | 3.2 | 4.8 | 0.05 | 1.14 | 1.14 | 99 | 1017.3 |
| 20260902110005 | 18 | 81 | 3.2 | 8.0 | 0.91 | 1.12 | 1.12 | 99 | 1017.9 |
| 20260902105003 | 18 | 174 | 3.2 | 8.0 | 0.91 | 1.12 | 1.12 | 99 | 1018.6 |
| 20260902104003 | 18 | 67 | 3.2 | 4.8 | 0.94 | 1.12 | 1.12 | 99 | 1019.2 |